Weather in Tveri'a

Israel     32°46′57″N   35°31′34″E
temp.,
°C
wind,
m/s
gust,
m/s
humid.,
%
clouds,
%
prec.,
mm/h
press.,
hPa
HPBL,
m
18 september, sat
sat1800:00+24wnw22650 0.0 101023
03:00+23nw11680 0.0 101013
06:00+22nnw11720 0.0 101111
09:00+26ne01570 0.0 1012552
12:00+31e12340 0.0 10111309
15:00+34sw12270 0.0 10091789
18:00+31nnw44350 0.0 1009742
21:00+26nnw22530 0.0 101276
19 september, sun
sun1900:00+25nw11600 0.0 101214
03:00+23nw11660 0.0 101211
06:00+22sw00720 0.0 101311
09:00+26e10560 0.0 1014543
12:00+32ese12350 0.0 10131157
15:00+35wnw75250 0.0 10101597
18:00+32wnw34250 0.0 1010622
21:00+26w22510 0.0 101239
20 september, mon
mon2000:00+24wsw11610 0.0 101313
03:00+23sw11680 0.0 101311
06:00+22sw01710 0.0 101311
09:00+27e11520 0.0 1014423
12:00+33ese22270 0.0 1013947
15:00+36w33230 0.0 10101721
18:00+34nw34250 0.0 1010535
21:00+27w11510 0.0 101234
21 september, tue
tue2100:00+25sw11600 0.0 101214
03:00+25wnw11550 0.0 101211
06:00+24wsw11530 0.0 101211
09:00+30ene01380 0.0 1013317
12:00+36se11200 0.0 1012987
15:00+39wnw32160 0.0 10092438
18:00+35nw47220 0.0 1009676
21:00+28w22420 0.0 101126
22 september, wed
wed2200:00+26w11510 0.0 101022
03:00+24wsw11620 0.0 101013
06:00+23wsw11690 0.0 101013
09:00+28w01530 0.0 1011487
12:00+35sse02240 0.0 10091500
15:00+36wnw86200 0.0 10071529
18:00+30wnw68390 0.0 1007657
21:00+26wsw23680 0.0 100991